Terminal Aerodrome Forecast
Issued by NWS

Home | Current Version | Previous Version | Text Only | Print | Product List | Glossary On
Versions: 1 2 3 4 5 6 7 8 9 10 11 12 13 14 15 16 17 18 19 20 21 22 23 24 25 26 27
000
FTUS45 KREV 220500
TAFCXP
TAF
KCXP 220540Z 2206/2306 VRB04KT P6SM FEW070 BKN200
     FM222100 25010G18KT P6SM VCSH SCT080 BKN150
     FM230100 27015G22KT P6SM FEW100 SCT200=

USA.gov is the U.S. government's official web portal to all federal, state and local government web resources and services.